Location: Peebles
(55.6412°N, 3.1714°W)
Time: 16:27:07
(UTC+01:00)

USA 238 DEB - Pass Details

Date: 23 January 2022
Orbit: 969 x 1243 km, 63.4° (Epoch: 04 May)

Event Time Altitude Azimuth Distance (km) Brightness Sun altitude
Rises 21:32:25 0° 294° (WNW) 3,829 7.4 -41.4°
Reaches altitude 10° 21:35:06 10° 299° (WNW) 2,912 6.6 -41.8°
Enters shadow 21:38:59 33° 321° (NW) 1,764 5.1 -42.2°
